Year,Month,Day,Hour,Minute,Value (Times are PST for temperature in C)
2014,07,15,00,00,17.60
2014,07,15,00,01,17.50
2014,07,15,00,02,17.50
2014,07,15,00,03,17.50
2014,07,15,00,04,17.40
2014,07,15,00,05,17.40
2014,07,15,00,06,17.40
2014,07,15,00,07,17.30
2014,07,15,00,08,17.30
2014,07,15,00,09,17.30
2014,07,15,00,10,17.30
2014,07,15,00,11,17.20
2014,07,15,00,12,17.20
2014,07,15,00,13,17.20
2014,07,15,00,14,17.20
2014,07,15,00,15,17.20
2014,07,15,00,16,17.10
2014,07,15,00,17,17.10
2014,07,15,00,18,17.10
2014,07,15,00,19,17.10
2014,07,15,00,20,17.00
2014,07,15,00,21,17.00
2014,07,15,00,22,17.00
2014,07,15,00,23,16.90
2014,07,15,00,24,16.90
2014,07,15,00,25,16.90
2014,07,15,00,26,16.90
2014,07,15,00,27,16.90
2014,07,15,00,28,16.80
2014,07,15,00,29,16.80
2014,07,15,00,30,16.80
2014,07,15,00,31,16.80
2014,07,15,00,32,16.80
2014,07,15,00,33,16.70
2014,07,15,00,34,16.70
2014,07,15,00,35,16.70
2014,07,15,00,36,16.70
2014,07,15,00,37,16.70
2014,07,15,00,38,16.60
2014,07,15,00,39,16.60
2014,07,15,00,40,16.60
2014,07,15,00,41,16.60
2014,07,15,00,42,16.60
2014,07,15,00,43,16.50
2014,07,15,00,44,16.50
2014,07,15,00,45,16.50
2014,07,15,00,46,16.40
2014,07,15,00,47,16.40
2014,07,15,00,48,16.40
2014,07,15,00,49,16.40
2014,07,15,00,50,16.40
2014,07,15,00,51,16.30
2014,07,15,00,52,16.30
2014,07,15,00,53,16.30
2014,07,15,00,54,16.30
2014,07,15,00,55,16.30
2014,07,15,00,56,16.20
2014,07,15,00,57,16.20
2014,07,15,00,58,16.20
2014,07,15,00,59,16.20
2014,07,15,01,00,16.20
2014,07,15,01,01,16.20
2014,07,15,01,02,16.20
2014,07,15,01,03,16.10
2014,07,15,01,04,16.10
2014,07,15,01,05,16.10
2014,07,15,01,06,16.10
2014,07,15,01,07,16.10
2014,07,15,01,08,16.10
2014,07,15,01,09,16.00
2014,07,15,01,10,16.00
2014,07,15,01,11,16.00
2014,07,15,01,12,16.00
2014,07,15,01,13,15.90
2014,07,15,01,14,15.90
2014,07,15,01,15,15.90
2014,07,15,01,16,15.90
2014,07,15,01,17,15.90
2014,07,15,01,18,15.90
2014,07,15,01,19,15.80
2014,07,15,01,20,15.80
2014,07,15,01,21,15.80
2014,07,15,01,22,15.80
2014,07,15,01,23,15.80
2014,07,15,01,24,15.80
2014,07,15,01,25,15.70
2014,07,15,01,26,15.70
2014,07,15,01,27,15.70
2014,07,15,01,28,15.70
2014,07,15,01,29,15.70
2014,07,15,01,30,15.70
2014,07,15,01,31,15.60
2014,07,15,01,32,15.60
2014,07,15,01,33,15.60
2014,07,15,01,34,15.60
2014,07,15,01,35,15.60
2014,07,15,01,36,15.60
2014,07,15,01,37,15.60
2014,07,15,01,38,15.60
2014,07,15,01,39,15.60
2014,07,15,01,40,15.60
2014,07,15,01,41,15.60
2014,07,15,01,42,15.50
2014,07,15,01,43,15.50
2014,07,15,01,44,15.50
2014,07,15,01,45,15.50
2014,07,15,01,46,15.50
2014,07,15,01,47,15.40
2014,07,15,01,48,15.40
2014,07,15,01,49,15.40
2014,07,15,01,50,15.40
2014,07,15,01,51,15.40
2014,07,15,01,52,15.40
2014,07,15,01,53,15.30
2014,07,15,01,54,15.30
2014,07,15,01,55,15.30
2014,07,15,01,56,15.30
2014,07,15,01,57,15.30
2014,07,15,01,58,15.30
2014,07,15,01,59,15.30
2014,07,15,02,00,15.30
2014,07,15,02,01,15.30
2014,07,15,02,02,15.30
2014,07,15,02,03,15.30
2014,07,15,02,04,15.30
2014,07,15,02,05,15.30
2014,07,15,02,06,15.20
2014,07,15,02,07,15.20
2014,07,15,02,08,15.20
2014,07,15,02,09,15.20
2014,07,15,02,10,15.20
2014,07,15,02,11,15.20
2014,07,15,02,12,15.20
2014,07,15,02,13,15.20
2014,07,15,02,14,15.20
2014,07,15,02,15,15.10
2014,07,15,02,16,15.10
2014,07,15,02,17,15.10
2014,07,15,02,18,15.10
2014,07,15,02,19,15.10
2014,07,15,02,20,15.10
2014,07,15,02,21,15.10
2014,07,15,02,22,15.00
2014,07,15,02,23,15.00
2014,07,15,02,24,15.00
2014,07,15,02,25,15.00
2014,07,15,02,26,15.00
2014,07,15,02,27,14.90
2014,07,15,02,28,14.90
2014,07,15,02,29,14.90
2014,07,15,02,30,14.90
2014,07,15,02,31,14.90
2014,07,15,02,32,14.90
2014,07,15,02,33,14.90
2014,07,15,02,34,14.90
2014,07,15,02,35,14.90
2014,07,15,02,36,14.90
2014,07,15,02,37,14.90
2014,07,15,02,38,14.80
2014,07,15,02,39,14.80
2014,07,15,02,40,14.80
2014,07,15,02,41,14.80
2014,07,15,02,42,14.80
2014,07,15,02,43,14.80
2014,07,15,02,44,14.80
2014,07,15,02,45,14.70
2014,07,15,02,46,14.70
2014,07,15,02,47,14.70
2014,07,15,02,48,14.70
2014,07,15,02,49,14.70
2014,07,15,02,50,14.70
2014,07,15,02,51,14.70
2014,07,15,02,52,14.70
2014,07,15,02,53,14.70
2014,07,15,02,54,14.70
2014,07,15,02,55,14.70
2014,07,15,02,56,14.60
2014,07,15,02,57,14.60
2014,07,15,02,58,14.60
2014,07,15,02,59,14.60
2014,07,15,03,00,14.60
2014,07,15,03,01,14.60
2014,07,15,03,02,14.50
2014,07,15,03,03,14.50
2014,07,15,03,04,14.50
2014,07,15,03,05,14.50
2014,07,15,03,06,14.40
2014,07,15,03,07,14.40
2014,07,15,03,08,14.40
2014,07,15,03,09,14.40
2014,07,15,03,10,14.40
2014,07,15,03,11,14.30
2014,07,15,03,12,14.30
2014,07,15,03,13,14.30
2014,07,15,03,14,14.30
2014,07,15,03,15,14.30
2014,07,15,03,16,14.30
2014,07,15,03,17,14.30
2014,07,15,03,18,14.30
2014,07,15,03,19,14.20
2014,07,15,03,20,14.20
2014,07,15,03,21,14.20
2014,07,15,03,22,14.20
2014,07,15,03,23,14.20
2014,07,15,03,24,14.20
2014,07,15,03,25,14.20
2014,07,15,03,26,14.20
2014,07,15,03,27,14.20
2014,07,15,03,28,14.20
2014,07,15,03,29,14.10
2014,07,15,03,30,14.10
2014,07,15,03,31,14.10
2014,07,15,03,32,14.10
2014,07,15,03,33,14.10
2014,07,15,03,34,14.10
2014,07,15,03,35,14.10
2014,07,15,03,36,14.10
2014,07,15,03,37,14.00
2014,07,15,03,38,14.00
2014,07,15,03,39,14.00
2014,07,15,03,40,14.00
2014,07,15,03,41,14.00
2014,07,15,03,42,13.90
2014,07,15,03,43,13.90
2014,07,15,03,44,13.90
2014,07,15,03,45,13.90
2014,07,15,03,46,13.80
2014,07,15,03,47,13.80
2014,07,15,03,48,13.80
2014,07,15,03,49,13.80
2014,07,15,03,50,13.80
2014,07,15,03,51,13.80
2014,07,15,03,52,13.80
2014,07,15,03,53,13.80
2014,07,15,03,54,13.80
2014,07,15,03,55,13.80
2014,07,15,03,56,13.70
2014,07,15,03,57,13.70
2014,07,15,03,58,13.70
2014,07,15,03,59,13.70
2014,07,15,04,00,13.70
2014,07,15,04,01,13.70
2014,07,15,04,02,13.70
2014,07,15,04,03,13.70
2014,07,15,04,04,13.70
2014,07,15,04,05,13.70
2014,07,15,04,06,13.70
2014,07,15,04,07,13.60
2014,07,15,04,08,13.60
2014,07,15,04,09,13.60
2014,07,15,04,10,13.60
2014,07,15,04,11,13.60
2014,07,15,04,12,13.60
2014,07,15,04,13,13.60
2014,07,15,04,14,13.50
2014,07,15,04,15,13.50
2014,07,15,04,16,13.50
2014,07,15,04,17,13.50
2014,07,15,04,18,13.50
2014,07,15,04,19,13.50
2014,07,15,04,20,13.50
2014,07,15,04,21,13.40
2014,07,15,04,22,13.40
2014,07,15,04,23,13.40
2014,07,15,04,24,13.40
2014,07,15,04,25,13.40
2014,07,15,04,26,13.40
2014,07,15,04,27,13.40
2014,07,15,04,28,13.40
2014,07,15,04,29,13.30
2014,07,15,04,30,13.30
2014,07,15,04,31,13.30
2014,07,15,04,32,13.30
2014,07,15,04,33,13.30
2014,07,15,04,34,13.30
2014,07,15,04,35,13.30
2014,07,15,04,36,13.30
2014,07,15,04,37,13.30
2014,07,15,04,38,13.30
2014,07,15,04,39,13.30
2014,07,15,04,40,13.20
2014,07,15,04,41,13.20
2014,07,15,04,42,13.20
2014,07,15,04,43,13.20
2014,07,15,04,44,13.20
2014,07,15,04,45,13.20
2014,07,15,04,46,13.20
2014,07,15,04,47,13.20
2014,07,15,04,48,13.20
2014,07,15,04,49,13.20
2014,07,15,04,50,13.20
2014,07,15,04,51,13.20
2014,07,15,04,52,13.20
2014,07,15,04,53,13.20
2014,07,15,04,54,13.20
2014,07,15,04,55,13.20
2014,07,15,04,56,13.20
2014,07,15,04,57,13.20
2014,07,15,04,58,13.20
2014,07,15,04,59,13.20
2014,07,15,05,00,13.10
2014,07,15,05,01,13.10
2014,07,15,05,02,13.10
2014,07,15,05,03,13.10
2014,07,15,05,04,13.10
2014,07,15,05,05,13.10
2014,07,15,05,06,13.10
2014,07,15,05,07,13.10
2014,07,15,05,08,13.10
2014,07,15,05,09,13.10
2014,07,15,05,10,13.10
2014,07,15,05,11,13.10
2014,07,15,05,12,13.10
2014,07,15,05,13,13.10
2014,07,15,05,14,13.00
2014,07,15,05,15,13.00
2014,07,15,05,16,13.00
2014,07,15,05,17,13.00
2014,07,15,05,18,13.00
2014,07,15,05,19,13.00
2014,07,15,05,20,12.90
2014,07,15,05,21,12.90
2014,07,15,05,22,12.90
2014,07,15,05,23,12.90
2014,07,15,05,24,12.90
2014,07,15,05,25,12.90
2014,07,15,05,26,12.90
2014,07,15,05,27,12.80
2014,07,15,05,28,12.80
2014,07,15,05,29,12.80
2014,07,15,05,30,12.80
2014,07,15,05,31,12.80
2014,07,15,05,32,12.80
2014,07,15,05,33,12.80
2014,07,15,05,34,12.80
2014,07,15,05,35,12.80
2014,07,15,05,36,12.80
2014,07,15,05,37,12.80
2014,07,15,05,38,12.80
2014,07,15,05,39,12.80
2014,07,15,05,40,12.80
2014,07,15,05,41,12.80
2014,07,15,05,42,12.80
2014,07,15,05,43,12.80
2014,07,15,05,44,12.80
2014,07,15,05,45,12.80
2014,07,15,05,46,12.80
2014,07,15,05,47,12.80
2014,07,15,05,48,12.80
2014,07,15,05,49,12.80
2014,07,15,05,50,12.80
2014,07,15,05,51,12.80
2014,07,15,05,52,12.80
2014,07,15,05,53,12.80
2014,07,15,05,54,12.80
2014,07,15,05,55,12.80
2014,07,15,05,56,12.80
2014,07,15,05,57,12.80
2014,07,15,05,58,12.80
2014,07,15,05,59,12.80
2014,07,15,06,00,12.80
2014,07,15,06,01,12.80
2014,07,15,06,02,12.80
2014,07,15,06,03,12.80
2014,07,15,06,04,12.80
2014,07,15,06,05,12.80
2014,07,15,06,06,12.80
2014,07,15,06,07,12.80
2014,07,15,06,08,12.80
2014,07,15,06,09,12.80
2014,07,15,06,10,12.80
2014,07,15,06,11,12.80
2014,07,15,06,12,12.80
2014,07,15,06,13,12.80
2014,07,15,06,14,12.70
2014,07,15,06,15,12.70
2014,07,15,06,16,12.70
2014,07,15,06,17,12.70
2014,07,15,06,18,12.70
2014,07,15,06,19,12.70
2014,07,15,06,20,12.70
2014,07,15,06,21,12.70
2014,07,15,06,22,12.70
2014,07,15,06,23,12.70
2014,07,15,06,24,12.70
2014,07,15,06,25,12.70
2014,07,15,06,26,12.70
2014,07,15,06,27,12.70
2014,07,15,06,28,12.70
2014,07,15,06,29,12.70
2014,07,15,06,30,12.70
2014,07,15,06,31,12.70
2014,07,15,06,32,12.70
2014,07,15,06,33,12.70
2014,07,15,06,34,12.70
2014,07,15,06,35,12.70
2014,07,15,06,36,12.70
2014,07,15,06,37,12.70
2014,07,15,06,38,12.70
2014,07,15,06,39,12.70
2014,07,15,06,40,12.70
2014,07,15,06,41,12.70
2014,07,15,06,42,12.70
2014,07,15,06,43,12.60
2014,07,15,06,44,12.70
2014,07,15,06,45,12.70
2014,07,15,06,46,12.70
2014,07,15,06,47,12.70
2014,07,15,06,48,12.60
2014,07,15,06,49,12.60
2014,07,15,06,50,12.60
2014,07,15,06,51,12.60
2014,07,15,06,52,12.60
2014,07,15,06,53,12.60
2014,07,15,06,54,12.60
2014,07,15,06,55,12.70
2014,07,15,06,56,12.70
2014,07,15,06,57,12.70
2014,07,15,06,58,12.70
2014,07,15,06,59,12.80
2014,07,15,07,00,12.80
2014,07,15,07,01,12.80
2014,07,15,07,02,12.90
2014,07,15,07,03,12.90
2014,07,15,07,04,13.00
2014,07,15,07,05,13.10
2014,07,15,07,06,13.10
2014,07,15,07,07,13.20
2014,07,15,07,08,13.20
2014,07,15,07,09,13.30
2014,07,15,07,10,13.40
2014,07,15,07,11,13.50
2014,07,15,07,12,13.50
2014,07,15,07,13,13.60
2014,07,15,07,14,13.70
2014,07,15,07,15,13.70
2014,07,15,07,16,13.80
2014,07,15,07,17,13.80
2014,07,15,07,18,13.90
2014,07,15,07,19,14.00
2014,07,15,07,20,14.10
2014,07,15,07,21,14.20
2014,07,15,07,22,14.20
2014,07,15,07,23,14.20
2014,07,15,07,24,14.30
2014,07,15,07,25,14.40
2014,07,15,07,26,14.40
2014,07,15,07,27,14.50
2014,07,15,07,28,14.60
2014,07,15,07,29,14.70
2014,07,15,07,30,14.80
2014,07,15,07,31,14.90
2014,07,15,07,32,15.00
2014,07,15,07,33,15.00
2014,07,15,07,34,15.10
2014,07,15,07,35,15.20
2014,07,15,07,36,15.30
2014,07,15,07,37,15.40
2014,07,15,07,38,15.50
2014,07,15,07,39,15.60
2014,07,15,07,40,15.70
2014,07,15,07,41,15.80
2014,07,15,07,42,15.90
2014,07,15,07,43,16.00
2014,07,15,07,44,16.10
2014,07,15,07,45,16.10
2014,07,15,07,46,16.20
2014,07,15,07,47,16.30
2014,07,15,07,48,16.30
2014,07,15,07,49,16.40
2014,07,15,07,50,16.50
2014,07,15,07,51,16.60
2014,07,15,07,52,16.60
2014,07,15,07,53,16.70
2014,07,15,07,54,16.80
2014,07,15,07,55,16.90
2014,07,15,07,56,17.00
2014,07,15,07,57,17.10
2014,07,15,07,58,17.10
2014,07,15,07,59,17.20
2014,07,15,08,00,17.30
2014,07,15,08,01,17.40
2014,07,15,08,02,17.50
2014,07,15,08,03,17.60
2014,07,15,08,04,17.70
2014,07,15,08,05,17.70
2014,07,15,08,06,17.80
2014,07,15,08,07,17.80
2014,07,15,08,08,17.90
2014,07,15,08,09,17.90
2014,07,15,08,10,17.90
2014,07,15,08,11,18.00
2014,07,15,08,12,18.00
2014,07,15,08,13,18.00
2014,07,15,08,14,18.00
2014,07,15,08,15,18.10
2014,07,15,08,16,18.10
2014,07,15,08,17,18.10
2014,07,15,08,18,18.20
2014,07,15,08,19,18.20
2014,07,15,08,20,18.30
2014,07,15,08,21,18.40
2014,07,15,08,22,18.40
2014,07,15,08,23,18.50
2014,07,15,08,24,18.60
2014,07,15,08,25,18.70
2014,07,15,08,26,18.80
2014,07,15,08,27,18.80
2014,07,15,08,28,18.90
2014,07,15,08,29,18.90
2014,07,15,08,30,18.90
2014,07,15,08,31,19.00
2014,07,15,08,32,19.00
2014,07,15,08,33,19.10
2014,07,15,08,34,19.10
2014,07,15,08,35,19.20
2014,07,15,08,36,19.20
2014,07,15,08,37,19.20
2014,07,15,08,38,19.20
2014,07,15,08,39,19.30
2014,07,15,08,40,19.30
2014,07,15,08,41,19.30
2014,07,15,08,42,19.40
2014,07,15,08,43,19.40
2014,07,15,08,44,19.50
2014,07,15,08,45,19.60
2014,07,15,08,46,19.60
2014,07,15,08,47,19.70
2014,07,15,08,48,19.70
2014,07,15,08,49,19.70
2014,07,15,08,50,19.70
2014,07,15,08,51,19.80
2014,07,15,08,52,19.80
2014,07,15,08,53,19.80
2014,07,15,08,54,19.90
2014,07,15,08,55,20.00
2014,07,15,08,56,20.00
2014,07,15,08,57,20.00
2014,07,15,08,58,20.10
2014,07,15,08,59,20.20
2014,07,15,09,00,20.20
2014,07,15,09,01,20.20
2014,07,15,09,02,20.30
2014,07,15,09,03,20.30
2014,07,15,09,04,20.40
2014,07,15,09,05,20.40
2014,07,15,09,06,20.50
2014,07,15,09,07,20.50
2014,07,15,09,08,20.70
2014,07,15,09,09,20.70
2014,07,15,09,10,20.80
2014,07,15,09,11,20.80
2014,07,15,09,12,20.80
2014,07,15,09,13,20.80
2014,07,15,09,14,20.80
2014,07,15,09,15,20.90
2014,07,15,09,16,20.90
2014,07,15,09,17,20.90
2014,07,15,09,18,20.90
2014,07,15,09,19,20.90
2014,07,15,09,20,20.90
2014,07,15,09,21,20.90
2014,07,15,09,22,20.90
2014,07,15,09,23,20.90
2014,07,15,09,24,21.00
2014,07,15,09,25,21.10
2014,07,15,09,26,21.10
2014,07,15,09,27,21.20
2014,07,15,09,28,21.20
2014,07,15,09,29,21.20
2014,07,15,09,30,21.30
2014,07,15,09,31,21.30
2014,07,15,09,32,21.30
2014,07,15,09,33,21.30
2014,07,15,09,34,21.40
2014,07,15,09,35,21.40
2014,07,15,09,36,21.40
2014,07,15,09,37,21.40
2014,07,15,09,38,21.40
2014,07,15,09,39,21.50
2014,07,15,09,40,21.50
2014,07,15,09,41,21.50
2014,07,15,09,42,21.60
2014,07,15,09,43,21.50
2014,07,15,09,44,21.50
2014,07,15,09,45,21.60
2014,07,15,09,46,21.60
2014,07,15,09,47,21.60
2014,07,15,09,48,21.60
2014,07,15,09,49,21.70
2014,07,15,09,50,21.70
2014,07,15,09,51,21.70
2014,07,15,09,52,21.70
2014,07,15,09,53,21.80
2014,07,15,09,54,21.80
2014,07,15,09,55,21.90
2014,07,15,09,56,22.00
2014,07,15,09,57,22.00
2014,07,15,09,58,22.10
2014,07,15,09,59,22.10
2014,07,15,10,00,22.10
2014,07,15,10,01,22.20
2014,07,15,10,02,22.20
2014,07,15,10,03,22.20
2014,07,15,10,04,22.30
2014,07,15,10,05,22.30
2014,07,15,10,06,22.40
2014,07,15,10,07,22.50
2014,07,15,10,08,22.50
2014,07,15,10,09,22.60
2014,07,15,10,10,22.60
2014,07,15,10,11,22.60
2014,07,15,10,12,22.60
2014,07,15,10,13,22.60
2014,07,15,10,14,22.60
2014,07,15,10,15,22.70
2014,07,15,10,16,22.80
2014,07,15,10,17,22.80
2014,07,15,10,18,22.90
2014,07,15,10,19,23.00
2014,07,15,10,20,23.00
2014,07,15,10,21,23.10
2014,07,15,10,22,23.10
2014,07,15,10,23,23.20
2014,07,15,10,24,23.20
2014,07,15,10,25,23.30
2014,07,15,10,26,23.30
2014,07,15,10,27,23.30
2014,07,15,10,28,23.40
2014,07,15,10,29,23.40
2014,07,15,10,30,23.50
2014,07,15,10,31,23.50
2014,07,15,10,32,23.60
2014,07,15,10,33,23.60
2014,07,15,10,34,23.70
2014,07,15,10,35,23.70
2014,07,15,10,36,23.70
2014,07,15,10,37,23.80
2014,07,15,10,38,23.80
2014,07,15,10,39,23.90
2014,07,15,10,40,23.90
2014,07,15,10,41,23.90
2014,07,15,10,42,24.00
2014,07,15,10,43,24.00
2014,07,15,10,44,24.00
2014,07,15,10,45,24.10
2014,07,15,10,46,24.20
2014,07,15,10,47,24.30
2014,07,15,10,48,24.50
2014,07,15,10,49,24.60
2014,07,15,10,50,24.70
2014,07,15,10,51,24.70
2014,07,15,10,52,24.80
2014,07,15,10,53,24.80
2014,07,15,10,54,24.80
2014,07,15,10,55,24.90
2014,07,15,10,56,25.00
2014,07,15,10,57,25.10
2014,07,15,10,58,25.20
2014,07,15,10,59,25.30
2014,07,15,11,00,25.40
2014,07,15,11,01,25.50
2014,07,15,11,02,25.50
2014,07,15,11,03,25.50
2014,07,15,11,04,25.50
2014,07,15,11,05,25.60
2014,07,15,11,06,25.70
2014,07,15,11,07,25.70
2014,07,15,11,08,25.80
2014,07,15,11,09,25.80
2014,07,15,11,10,25.80
2014,07,15,11,11,25.90
2014,07,15,11,12,26.00
2014,07,15,11,13,26.10
2014,07,15,11,14,26.10
2014,07,15,11,15,26.10
2014,07,15,11,16,26.20
2014,07,15,11,17,26.20
2014,07,15,11,18,26.30
2014,07,15,11,19,26.30
2014,07,15,11,20,26.40
2014,07,15,11,21,26.40
2014,07,15,11,22,26.40
2014,07,15,11,23,26.40
2014,07,15,11,24,26.40
2014,07,15,11,25,26.40
2014,07,15,11,26,26.50
2014,07,15,11,27,26.50
2014,07,15,11,28,26.60
2014,07,15,11,29,26.70
2014,07,15,11,30,26.80
2014,07,15,11,31,26.80
2014,07,15,11,32,26.90
2014,07,15,11,33,26.90
2014,07,15,11,34,27.00
2014,07,15,11,35,27.10
2014,07,15,11,36,27.20
2014,07,15,11,37,27.20
2014,07,15,11,38,27.20
2014,07,15,11,39,27.20
2014,07,15,11,40,27.20
2014,07,15,11,41,27.30
2014,07,15,11,42,27.40
2014,07,15,11,43,27.50
2014,07,15,11,44,27.50
2014,07,15,11,45,27.60
2014,07,15,11,46,27.60
2014,07,15,11,47,27.60
2014,07,15,11,48,27.60
2014,07,15,11,49,27.60
2014,07,15,11,50,27.60
2014,07,15,11,51,27.60
2014,07,15,11,52,27.60
2014,07,15,11,53,27.60
2014,07,15,11,54,27.70
2014,07,15,11,55,27.80
2014,07,15,11,56,27.90
2014,07,15,11,57,28.00
2014,07,15,11,58,28.00
2014,07,15,11,59,28.10
2014,07,15,12,00,28.10
2014,07,15,12,01,28.10
2014,07,15,12,02,28.20
2014,07,15,12,03,28.30
2014,07,15,12,04,28.30
2014,07,15,12,05,28.40
2014,07,15,12,06,28.40
2014,07,15,12,07,28.40
2014,07,15,12,08,28.40
2014,07,15,12,09,28.40
2014,07,15,12,10,28.50
2014,07,15,12,11,28.60
2014,07,15,12,12,28.60
2014,07,15,12,13,28.70
2014,07,15,12,14,28.70
2014,07,15,12,15,28.70
2014,07,15,12,16,28.80
2014,07,15,12,17,28.80
2014,07,15,12,18,28.80
2014,07,15,12,19,28.90
2014,07,15,12,20,29.00
2014,07,15,12,21,29.10
2014,07,15,12,22,29.10
2014,07,15,12,23,29.10
2014,07,15,12,24,29.10
2014,07,15,12,25,29.10
2014,07,15,12,26,29.20
2014,07,15,12,27,29.30
2014,07,15,12,28,29.30
2014,07,15,12,29,29.40
2014,07,15,12,30,29.50
2014,07,15,12,31,29.60
2014,07,15,12,32,29.60
2014,07,15,12,33,29.60
2014,07,15,12,34,29.70
2014,07,15,12,35,29.70
2014,07,15,12,36,29.80
2014,07,15,12,37,29.90
2014,07,15,12,38,29.90
2014,07,15,12,39,30.00
2014,07,15,12,40,30.10
2014,07,15,12,41,30.10
2014,07,15,12,42,30.10
2014,07,15,12,43,30.20
2014,07,15,12,44,30.40
2014,07,15,12,45,30.50
2014,07,15,12,46,30.60
2014,07,15,12,47,30.70
2014,07,15,12,48,30.70
2014,07,15,12,49,30.80
2014,07,15,12,50,30.80
2014,07,15,12,51,30.70
2014,07,15,12,52,30.60
2014,07,15,12,53,30.50
2014,07,15,12,54,30.40
2014,07,15,12,55,30.40
2014,07,15,12,56,30.40
2014,07,15,12,57,30.40
2014,07,15,12,58,30.50
2014,07,15,12,59,30.60
2014,07,15,13,00,30.80
2014,07,15,13,01,30.80
2014,07,15,13,02,30.80
2014,07,15,13,03,30.80
2014,07,15,13,04,30.70
2014,07,15,13,05,30.70
2014,07,15,13,06,30.60
2014,07,15,13,07,30.50
2014,07,15,13,08,30.40
2014,07,15,13,09,30.20
2014,07,15,13,10,30.00
2014,07,15,13,11,29.90
2014,07,15,13,12,29.80
2014,07,15,13,13,29.70
2014,07,15,13,14,29.60
2014,07,15,13,15,29.50
2014,07,15,13,16,29.50
2014,07,15,13,17,29.40
2014,07,15,13,18,29.40
2014,07,15,13,19,29.40
2014,07,15,13,20,29.40
2014,07,15,13,21,29.40
2014,07,15,13,22,29.50
2014,07,15,13,23,29.50
2014,07,15,13,24,29.60
2014,07,15,13,25,29.70
2014,07,15,13,26,29.70
2014,07,15,13,27,29.60
2014,07,15,13,28,29.60
2014,07,15,13,29,29.50
2014,07,15,13,30,29.50
2014,07,15,13,31,29.40
2014,07,15,13,32,29.40
2014,07,15,13,33,29.40
2014,07,15,13,34,29.40
2014,07,15,13,35,29.40
2014,07,15,13,36,29.40
2014,07,15,13,37,29.40
2014,07,15,13,38,29.40
2014,07,15,13,39,29.40
2014,07,15,13,40,29.40
2014,07,15,13,41,29.40
2014,07,15,13,42,29.40
2014,07,15,13,43,29.40
2014,07,15,13,44,29.40
2014,07,15,13,45,29.30
2014,07,15,13,46,29.40
2014,07,15,13,47,29.30
2014,07,15,13,48,29.30
2014,07,15,13,49,29.30
2014,07,15,13,50,29.30
2014,07,15,13,51,29.30
2014,07,15,13,52,29.30
2014,07,15,13,53,29.30
2014,07,15,13,54,29.40
2014,07,15,13,55,29.40
2014,07,15,13,56,29.40
2014,07,15,13,57,29.50
2014,07,15,13,58,29.60
2014,07,15,13,59,29.70
2014,07,15,14,00,29.70
2014,07,15,14,01,29.70
2014,07,15,14,02,29.70
2014,07,15,14,03,29.80
2014,07,15,14,04,29.80
2014,07,15,14,05,29.80
2014,07,15,14,06,29.90
2014,07,15,14,07,29.90
2014,07,15,14,08,29.90
2014,07,15,14,09,29.90
2014,07,15,14,10,29.90
2014,07,15,14,11,29.90
2014,07,15,14,12,29.90
2014,07,15,14,13,29.90
2014,07,15,14,14,29.90
2014,07,15,14,15,30.00
2014,07,15,14,16,30.00
2014,07,15,14,17,30.10
2014,07,15,14,18,30.10
2014,07,15,14,19,30.10
2014,07,15,14,20,30.20
2014,07,15,14,21,30.20
2014,07,15,14,22,30.20
2014,07,15,14,23,30.30
2014,07,15,14,24,30.30
2014,07,15,14,25,30.30
2014,07,15,14,26,30.30
2014,07,15,14,27,30.30
2014,07,15,14,28,30.30
2014,07,15,14,29,30.20
2014,07,15,14,30,30.20
2014,07,15,14,31,30.20
2014,07,15,14,32,30.20
2014,07,15,14,33,30.20
2014,07,15,14,34,30.20
2014,07,15,14,35,30.10
2014,07,15,14,36,30.10
2014,07,15,14,37,30.20
2014,07,15,14,38,30.20
2014,07,15,14,39,30.30
2014,07,15,14,40,30.30
2014,07,15,14,41,30.30
2014,07,15,14,42,30.30
2014,07,15,14,43,30.30
2014,07,15,14,44,30.40
2014,07,15,14,45,30.40
2014,07,15,14,46,30.40
2014,07,15,14,47,30.30
2014,07,15,14,48,30.30
2014,07,15,14,49,30.30
2014,07,15,14,50,30.30
2014,07,15,14,51,30.20
2014,07,15,14,52,30.20
2014,07,15,14,53,30.20
2014,07,15,14,54,30.20
2014,07,15,14,55,30.30
2014,07,15,14,56,30.30
2014,07,15,14,57,30.30
2014,07,15,14,58,30.30
2014,07,15,14,59,30.20
2014,07,15,15,00,30.30
2014,07,15,15,01,30.30
2014,07,15,15,02,30.30
2014,07,15,15,03,30.40
2014,07,15,15,04,30.40
2014,07,15,15,05,30.30
2014,07,15,15,06,30.30
2014,07,15,15,07,30.30
2014,07,15,15,08,30.30
2014,07,15,15,09,30.40
2014,07,15,15,10,30.40
2014,07,15,15,11,30.40
2014,07,15,15,12,30.50
2014,07,15,15,13,30.40
2014,07,15,15,14,30.40
2014,07,15,15,15,30.40
2014,07,15,15,16,30.40
2014,07,15,15,17,30.40
2014,07,15,15,18,30.40
2014,07,15,15,19,30.50
2014,07,15,15,20,30.50
2014,07,15,15,21,30.60
2014,07,15,15,22,30.70
2014,07,15,15,23,30.70
2014,07,15,15,24,30.80
2014,07,15,15,25,30.80
2014,07,15,15,26,30.80
2014,07,15,15,27,30.80
2014,07,15,15,28,30.70
2014,07,15,15,29,30.70
2014,07,15,15,30,30.70
2014,07,15,15,31,30.70
2014,07,15,15,32,30.80
2014,07,15,15,33,30.80
2014,07,15,15,34,30.80
2014,07,15,15,35,30.80
2014,07,15,15,36,30.80
2014,07,15,15,37,30.80
2014,07,15,15,38,30.70
2014,07,15,15,39,30.80
2014,07,15,15,40,30.80
2014,07,15,15,41,30.90
2014,07,15,15,42,30.90
2014,07,15,15,43,31.00
2014,07,15,15,44,30.90
2014,07,15,15,45,30.90
2014,07,15,15,46,30.90
2014,07,15,15,47,30.90
2014,07,15,15,48,30.90
2014,07,15,15,49,30.80
2014,07,15,15,50,30.80
2014,07,15,15,51,30.70
2014,07,15,15,52,30.70
2014,07,15,15,53,30.70
2014,07,15,15,54,30.70
2014,07,15,15,55,30.70
2014,07,15,15,56,30.70
2014,07,15,15,57,30.70
2014,07,15,15,58,30.80
2014,07,15,15,59,30.70
2014,07,15,16,00,30.70
2014,07,15,16,01,30.70
2014,07,15,16,02,30.80
2014,07,15,16,03,30.80
2014,07,15,16,04,30.80
2014,07,15,16,05,30.80
2014,07,15,16,06,30.80
2014,07,15,16,07,30.80
2014,07,15,16,08,30.80
2014,07,15,16,09,30.80
2014,07,15,16,10,30.70
2014,07,15,16,11,30.80
2014,07,15,16,12,30.80
2014,07,15,16,13,30.80
2014,07,15,16,14,30.80
2014,07,15,16,15,30.80
2014,07,15,16,16,30.70
2014,07,15,16,17,30.70
2014,07,15,16,18,30.70
2014,07,15,16,19,30.70
2014,07,15,16,20,30.70
2014,07,15,16,21,30.80
2014,07,15,16,22,30.80
2014,07,15,16,23,30.80
2014,07,15,16,24,30.90
2014,07,15,16,25,30.90
2014,07,15,16,26,30.90
2014,07,15,16,27,30.90
2014,07,15,16,28,31.00
2014,07,15,16,29,31.00
2014,07,15,16,30,31.00
2014,07,15,16,31,31.00
2014,07,15,16,32,30.90
2014,07,15,16,33,30.90
2014,07,15,16,34,30.90
2014,07,15,16,35,30.90
2014,07,15,16,36,30.90
2014,07,15,16,37,30.90
2014,07,15,16,38,31.00
2014,07,15,16,39,30.90
2014,07,15,16,40,30.90
2014,07,15,16,41,30.80
2014,07,15,16,42,30.80
2014,07,15,16,43,30.80
2014,07,15,16,44,30.80
2014,07,15,16,45,30.80
2014,07,15,16,46,30.80
2014,07,15,16,47,30.80
2014,07,15,16,48,30.80
2014,07,15,16,49,30.80
2014,07,15,16,50,30.80
2014,07,15,16,51,30.80
2014,07,15,16,52,30.80
2014,07,15,16,53,30.80
2014,07,15,16,54,30.80
2014,07,15,16,55,30.80
2014,07,15,16,56,30.80
2014,07,15,16,57,30.80
2014,07,15,16,58,30.80
2014,07,15,16,59,30.80
2014,07,15,17,00,30.80
2014,07,15,17,01,30.90
2014,07,15,17,02,30.90
2014,07,15,17,03,30.90
2014,07,15,17,04,30.80
2014,07,15,17,05,30.80
2014,07,15,17,06,30.80
2014,07,15,17,07,30.80
2014,07,15,17,08,30.80
2014,07,15,17,09,30.90
2014,07,15,17,10,30.90
2014,07,15,17,11,31.00
2014,07,15,17,12,31.00
2014,07,15,17,13,31.00
2014,07,15,17,14,31.00
2014,07,15,17,15,30.90
2014,07,15,17,16,30.90
2014,07,15,17,17,30.90
2014,07,15,17,18,30.80
2014,07,15,17,19,30.80